SCP
0 0 0 0 0 0 0 0 0 -0 0 0 0 0 0 0 0 0 0 0 0 0 0 0 0 0 0 0 0 0 0 0 0 0 0 0 0 0 0 0 0 0 0 0 0 0 0 0 0 0 0 0 0 0
0 0 0 0 0 0 0 0 0 -0 -0 0 0 0 0 0 0 0 0 0 0 0 0 0 0 0 0 0 0 0 0 0 0 0 0 0 0 0 0 0 0 0 0 0 0 0 0 0 0 0 0 0 0 0
0 0 0 0 0 0 0 0 0 -0 -0 -0 0 0 0 0 0 0 0 0 0 0 0 0 0 0 0 0 0 0 0 0 0 0 0 0 0 0 0 0 0 0 0 0 0 0 0 0 0 0 0 0 0 0
0 0 0 0 0 0 0 0 0 0 -0 -0 0 0 0 0 0 0 0 0 0 0 0 0 0 0 0 0 0 0 0 0 0 0 0 0 0 0 0 0 0 0 0 0 0 0 0 0 0 0 0 0 0 0
0 0 0 0 0 0 0 0 0 0 0 -0 -0 0 0 0 0 0 0 0 0 0 0 0 0 0 0 0 0 0 0 0 0 0 0 0 0 0 0 0 0 0 0 0 0 0 0 0 0 0 0 0 0 0
0 0 0 0 0 0 0 0 0 0 0 -0 -0 -0 0 0 0 0 0 0 0 0 0 0 0 0 0 0 0 0 0 0 0 0 0 0 0 0 0 0 0 0 0 0 0 0 0 0 0 0 0 0 0 0
0 0 0 0 0 0 0 0 0 0 0 0 -0 -0 -0 0 0 0 0 0 0 0 0 0 0 0 0 0 0 0 0 0 0 0 0 0 0 0 0 0 0 0 0 0 0 0 0 0 0 0 0 0 0 0
0 0 0 0 0 0 0 0 0 0 0 0 0 -0 -0 0 0 0 0 0 0 0 0 0 0 0 0 0 0 0 0 0 0 0 0 0 0 0 0 0 0 0 0 0 0 0 0 0 0 0 0 0 0 0
0 0 0 0 0 0 0 0 0 0 0 0 0 -0 -0 -0 0 0 0 0 0 0 0 0 0 0 0 0 0 0 0 0 0 0 0 0 0 0 0 0 0 0 0 0 0 0 0 0 0 0 0 0 0 0
0 0 0 0 0 0 0 0 0 0 0 0 -0 -0 -0 0 0 0 0 0 0 0 0 0 0 0 0 0 0 0 0 0 0 0 0 0 0 0 0 0 0 0 0 -0 0 0 0 0 0 0 0 0 0 0
0 0 0 0 0 0 0 0 0 0 0 0 -0 -0 0 0 0 0 0 0 0 0 0 0 0 0 0 0 0 0 0 0 0 0 0 0 0 0 0 0 0 0 0 -0 0 0 0 -0 -0 0 0 0 0 0
0 0 0 0 0 0 0 0 0 0 0 0 0 0 0 0 0 0 0 0 0 0 0 0 0 0 0 0 0 0 0 0 0 0 0 0 0 0 0 0 0 0 0 0 0 0 0 0 0 0 0 0 0 0
0 0 0 0 0 0 0 0 0 0 0 0 0 0 0 0 0 0 0 0 0 0 0 0 0 0 0 0 0 0 0 0 0 0 0 0 0 0 0 0 0 0 0 0 0 0 0 0 0 0 0 0 0 0
0 0 0 0 0 0 0 0 0 0 0 0 0 0 0 0 0 0 0 0 0 0 0 0 0 0 0 0 0 0 0 0 0 0 0 0 0 0 0 0 0 0 0 0 0 0 0 0 0 0 0 0 0 0
0 0 0 0 0 0 0 0 0 0 0 0 0 0 0 0 0 0 0 0 0 0 0 0 0 0 0 0 0 0 0 0 0 0 0 0 0 0 0 0 0 0 0 0 0 0 0 0 0 0 0 0 0 0
0 0 0 0 0 0 0 0 0 0 0 0 0 0 0 0 0 0 0 0 0 0 0 0 0 0 0 0 0 0 0 0 0 0 0 0 0 0 0 0 0 0 0 0 0 0 0 0 0 0 0 0 0 0
0 0 0 0 0 0 0 0 0 0 0 0 0 0 0 0 0 0 0 0 0 0 0 0 0 0 0 0 0 0 0 0 0 0 0 0 0 0 0 0 0 0 0 0 0 0 0 0 0 0 0 0 0 0
0 0 0 0 0 0 0 0 0 0 0 0 0 -0 -0 -0 0 0 0 0 0 0 0 0 0 0 0 0 0 0 0 0 0 0 0 0 0 0 0 0 0 0 0 0 0 0 0 0 0 0 0 0 0 0
0 0 0 0 0 0 0 0 0 0 0 0 0 0 -0 -0 0 0 0 0 0 0 0 0 0 0 0 0 0 0 0 0 0 0 0 0 0 0 0 0 0 0 0 0 0 0 0 0 0 0 0 0 0 0
0 0 0 0 0 0 0 0 0 0 0 0 0 0 0 0 -0 -0 0 0 0 0 0 0 0 0 0 0 0 0 0 0 0 0 0 0 0 0 0 0 0 0 0 0 0 0 0 0 0 0 0 0 0 0
0 0 0 0 0 0 0 0 0 0 0 0 0 0 0 0 -0 -0 0 0 0 0 0 0 0 0 0 0 0 0 -0 0 0 0 0 0 0 0 0 0 0 0 0 0 0 0 0 0 0 0 0 0 0 0
0 0 0 0 0 0 0 0 0 0 0 0 0 0 0 0 0 -0 0 -0 0 0 0 0 -0 -0 -0 -0 -0 -0 0 0 0 0 0 0 0 0 0 0 0 0 0 0 0 0 0 0 0 0 0 0 0 0
0 0 0 0 0 0 0 0 0 0 0 0 0 0 0 0 0 0 -0 -0 -0 -0 0 0 0 0 -0 -0 -0 -0 -0 -0 0 0 0 0 0 0 0 0 0 0 0 0 0 0 0 0 0 0 0 0 0 0
0 0 0 0 0 0 0 0 0 0 0 0 0 0 0 0 0 0 0 0 -0 -0 -0 -0 0 0 0 0 0 -0 -0 -0 -0 -0 -0 0 0 0 0 0 0 0 0 0 0 0 0 0 0 0 0 0 0 0
0 0 0 0 0 0 0 0 0 0 0 0 0 0 0 0 0 0 0 0 0 0 0 0 -0 0 0 0 -0 -0 -0 -0 -0 -0 -0 0 0 0 0 0 0 0 0 0 0 0 0 0 0 0 0 0 0 0
0 0 0 0 0 0 0 0 0 0 0 0 0 0 0 0 0 -0 -0 -0 0 0 0 -0 -0 0 0 0 0 0 0 0 -0 0 0 0 0 0 0 0 0 0 0 0 0 0 0 0 0 0 0 0 0 0
0 0 0 0 0 0 0 0 0 0 0 0 0 0 0 0 0 0 0 0 0 0 0 0 0 0 0 0 0 0 0 0 0 -0 -0 0 0 0 0 0 0 0 0 0 0 0 0 0 0 0 0 0 0 0
0 0 0 0 0 0 0 0 0 0 0 0 0 0 0 0 0 0 0 -0 0 0 0 -0 -0 0 0 0 0 0 0 0 0 0 -0 -0 0 0 0 0 0 0 0 0 0 0 0 0 0 0 0 0 0 0
0 0 0 0 0 0 0 0 0 0 0 0 0 0 0 0 0 0 -0 -0 -0 -0 -0 -0 -0 -0 -0 0 0 0 0 0 0 0 0 0 0 0 0 0 0 0 0 0 0 0 0 0 0 0 0 0 0 0
0 0 0 0 0 0 0 0 0 0 0 0 0 0 0 0 0 0 0 -0 -0 -0 -0 -0 -0 -0 -0 -0 0 0 0 0 0 0 0 0 0 0 0 0 0 0 0 0 0 0 0 0 0 0 0 0 0 0
0 0 0 0 0 0 0 0 0 0 0 0 0 0 0 0 0 0 0 0 0 -0 -0 -0 -0 0 -0 -0 -0 0 0 0 0 0 0 0 -0 -0 0 0 0 0 0 0 0 0 0 0 0 0 0 0 0 0
0 0 0 0 0 0 0 0 0 0 0 0 0 0 0 0 0 0 0 0 0 0 0 0 0 0 0 -0 -0 -0 -0 -0 0 0 0 0 0 -0 -0 0 0 0 0 0 0 0 0 0 0 0 0 0 0 0
0 0 0 0 0 0 0 0 0 0 0 0 0 0 0 0 0 0 0 0 0 0 0 0 0 0 0 -0 -0 -0 -0 -0 0 0 0 -0 0 -0 -0 0 0 0 0 0 0 0 0 0 0 0 0 0 0 0
Wind_Speed_500mb
30 25 27 25 25 30 32 31 28 36 41 40 34 10 37 45 41 36 32 26 28 10 26 31 21 22 26 22 10 30 15 8 5 4 7 8 7 10 4 9 12 14 13 7 6 2 10 30 17 13 7 22 33 32
33 32 29 27 25 27 26 28 29 36 39 41 44 20 27 45 43 38 34 33 28 14 15 27 25 21 29 27 23 63 6 16 28 8 2 7 5 4 7 6 4 4 11 8 16 10 3 67 7 19 25 34 36 30
41 33 30 28 25 23 23 25 23 30 42 42 46 37 17 48 50 44 41 30 28 15 10 20 19 24 27 29 27 20 15 21 18 12 17 5 6 8 9 11 7 7 11 5 4 6 21 52 27 25 25 24 32 28
38 35 33 27 25 23 23 24 23 24 36 45 39 47 19 28 55 51 44 35 37 11 10 10 21 25 27 31 30 19 11 32 25 19 7 6 5 15 6 1 5 6 22 10 11 12 8 31 59 36 34 33 37 31
38 35 32 27 23 24 25 24 24 28 30 40 40 46 30 15 45 48 45 41 43 15 10 13 23 17 24 28 27 19 18 28 20 13 6 6 11 11 3 4 7 27 16 13 12 21 9 10 59 54 46 46 38 34
38 31 24 23 24 25 22 23 24 23 26 33 33 44 43 24 22 38 22 51 48 35 6 5 12 14 21 25 24 24 26 21 13 9 8 10 12 12 7 8 17 53 40 27 6 22 17 6 48 58 48 47 40 32
33 28 21 18 19 15 18 25 25 23 28 32 33 33 48 29 22 29 18 16 58 46 10 12 5 12 25 26 23 21 23 11 10 9 9 11 11 15 5 9 13 32 43 41 28 33 19 38 42 61 49 48 41 34
33 28 30 21 17 14 16 21 21 24 31 38 26 35 42 44 33 37 24 12 60 49 15 8 3 10 29 13 12 17 15 15 10 7 10 10 14 8 8 33 35 30 46 48 43 43 16 39 46 64 57 57 51 41
36 34 27 20 15 14 18 19 25 26 30 24 19 22 19 22 9 14 41 15 63 25 18 15 15 10 33 13 12 15 15 2 9 7 10 19 5 12 24 54 56 60 63 61 57 47 28 51 64 70 68 61 52 47
37 28 26 17 14 14 19 21 23 27 23 15 12 5 11 17 15 8 15 21 29 22 14 8 20 7 27 13 8 12 7 6 5 6 21 6 9 49 37 42 48 61 64 49 69 50 53 62 74 78 73 60 50 46
37 32 24 18 14 12 17 24 23 25 8 6 3 5 8 20 19 15 12 11 10 8 24 20 18 16 26 9 8 12 6 1 3 6 9 7 9 22 77 87 67 55 67 70 64 47 47 48 79 80 74 64 55 49
38 33 25 19 16 13 11 17 16 16 9 10 17 13 13 14 10 7 9 9 9 11 24 29 26 22 24 17 12 12 7 4 11 18 4 9 10 48 46 78 100 86 75 77 75 61 56 59 70 73 71 70 60 50
40 32 26 21 16 13 12 14 19 17 26 25 12 8 13 12 8 10 12 7 6 12 23 23 12 24 17 12 16 7 9 12 26 3 9 11 24 29 58 62 77 93 80 83 82 67 57 61 66 73 74 69 62 56
40 34 28 21 19 18 13 21 23 24 11 9 11 10 10 11 12 11 10 6 16 28 47 41 21 15 14 9 10 12 3 6 1 5 17 7 34 41 45 51 60 78 92 91 87 80 71 71 73 76 71 70 67 61
39 35 28 24 21 21 22 21 22 15 6 11 13 11 16 20 21 21 27 12 14 35 75 25 10 10 5 9 3 11 5 14 16 15 9 30 55 41 51 56 65 72 93 96 94 90 79 77 81 83 76 70 63 58
40 33 33 29 29 24 24 23 24 21 12 15 18 10 13 13 10 26 32 36 30 57 46 23 8 9 8 11 10 22 16 17 10 9 36 42 30 53 61 59 60 71 89 99 98 94 85 85 89 87 81 72 66 59
38 42 34 30 24 22 22 28 21 17 22 17 14 44 31 20 22 30 37 33 45 45 9 10 10 16 8 7 9 13 12 9 21 23 35 46 58 60 65 59 63 72 87 99 101 95 88 88 90 89 87 79 69 60
43 37 29 26 22 24 32 39 20 20 25 21 11 51 51 40 27 15 27 36 41 29 26 10 21 7 13 16 10 8 25 27 36 29 19 31 48 50 43 51 62 72 87 98 101 97 94 97 98 94 86 82 74 66
39 31 25 21 20 18 8 12 24 12 28 32 62 70 26 43 51 52 24 21 45 53 14 9 5 9 11 7 10 22 36 59 58 41 41 30 33 39 41 52 63 75 87 100 106 102 99 98 99 97 91 87 84 77
31 30 22 17 20 9 10 14 12 14 9 17 43 42 52 46 45 53 43 32 49 16 11 7 10 12 6 14 17 19 26 42 61 49 45 45 40 42 52 60 71 78 90 99 101 98 99 100 98 96 92 90 87 81
32 30 26 23 22 22 12 12 11 11 11 14 28 42 19 39 30 44 51 48 26 10 5 28 37 54 60 60 53 57 56 44 44 64 64 59 53 53 55 62 71 86 101 110 112 105 103 107 105 100 94 89 81 72
34 24 21 18 16 13 20 22 16 9 10 17 10 12 11 9 18 23 34 24 19 30 30 42 40 47 54 58 52 43 43 42 46 50 68 58 62 64 66 77 87 95 105 114 117 113 111 110 104 101 96 89 81 74
25 23 15 16 15 12 12 22 13 11 4 5 6 4 4 6 19 30 11 22 29 48 68 75 77 68 76 77 69 73 73 50 42 43 54 56 58 66 69 78 85 97 108 114 114 112 114 109 106 103 98 90 85 79
27 18 14 14 22 10 9 12 15 13 9 6 6 5 6 9 12 13 8 22 60 73 71 68 64 65 66 69 75 81 87 76 57 49 42 51 58 60 68 73 86 95 98 108 116 115 112 109 108 106 101 96 93 90
12 17 13 12 16 11 8 6 7 6 7 7 8 8 7 11 7 7 6 10 55 68 74 66 64 65 70 77 72 73 80 91 62 56 50 43 51 55 63 68 80 93 98 105 116 117 110 107 110 111 107 103 101 98
13 24 26 18 8 11 11 6 10 13 9 10 15 10 11 7 9 10 7 24 46 65 71 70 66 70 70 77 80 79 76 81 70 68 69 57 52 63 72 80 86 93 104 107 110 118 113 114 116 116 112 107 103 100
11 13 18 24 13 8 5 6 6 4 8 10 7 11 10 12 12 7 20 30 39 41 34 31 40 61 64 66 69 79 75 84 80 72 69 68 63 56 69 77 89 93 98 111 114 115 114 117 116 118 116 111 107 104
16 30 16 33 22 32 13 9 11 10 8 11 4 7 11 16 11 19 40 40 33 30 22 7 9 17 36 50 51 49 58 67 70 65 59 59 59 53 55 66 71 77 80 98 115 110 113 111 113 118 118 115 112 106
21 34 42 19 23 19 20 16 15 28 37 35 12 13 8 51 60 68 74 72 63 53 46 38 44 50 58 59 46 46 55 61 59 61 72 78 77 74 62 62 71 77 77 87 110 114 109 111 108 109 111 111 107 103
27 58 23 20 19 20 35 42 44 51 59 71 70 63 62 67 80 76 76 81 71 65 63 61 55 38 35 26 42 56 53 49 55 65 70 82 90 77 67 65 67 76 80 86 103 110 102 100 101 103 106 106 105 106
40 47 19 35 27 64 78 72 70 74 72 67 70 60 62 80 89 88 81 85 89 87 73 66 56 45 41 46 42 50 60 58 52 55 66 68 61 65 67 77 75 77 85 92 100 111 114 108 108 109 112 114 112 110
45 36 20 18 24 71 51 37 51 57 64 61 64 63 61 50 47 72 85 69 61 59 56 50 47 51 54 53 56 61 58 54 55 53 46 48 71 75 62 60 79 88 92 95 98 106 115 117 116 117 118 116 112 112
29 42 41 29 22 15 35 36 20 28 48 48 53 63 62 64 34 69 83 63 58 61 64 68 71 79 79 67 62 61 52 50 53 56 53 47 53 64 71 62 65 84 96 99 101 106 116 122 121 122 120 116 114 113
Wind_Direction_500mb
262 264 280 276 288 301 293 304 313 311 303 258 256 38 188 214 211 217 221 215 208 221 180 189 180 165 163 168 143 151 110 210 82 124 147 193 165 211 155 169 179 171 148 186 94 54 302 161 127 178 163 149 171 177
260 260 265 272 281 305 314 315 318 312 308 297 247 315 169 199 206 212 220 211 209 214 177 194 194 189 190 179 148 166 158 162 173 102 182 115 148 152 156 234 33 231 187 181 188 216 163 178 158 179 164 166 175 174
245 254 260 272 272 285 299 304 309 320 315 310 268 251 19 182 202 205 213 211 196 197 148 174 184 188 185 185 175 164 199 172 184 161 150 147 162 137 164 234 160 240 180 196 23 195 210 199 197 185 177 176 167 167
243 246 256 261 267 275 290 299 303 299 310 313 287 255 325 182 196 201 209 210 201 179 148 185 190 185 189 187 190 191 191 175 159 160 139 141 155 192 194 179 193 166 151 176 265 248 214 224 210 193 177 173 166 166
233 242 254 258 252 264 279 287 301 306 309 319 304 270 248 28 182 200 207 208 205 213 161 142 173 185 192 192 192 190 174 173 160 157 133 195 146 140 94 88 240 192 177 173 221 203 171 196 199 189 183 177 175 171
232 245 237 239 251 276 289 306 296 301 301 315 311 288 241 341 155 178 216 217 207 205 204 122 172 179 182 183 186 182 176 180 183 178 158 169 176 174 142 203 244 207 206 205 206 185 187 189 178 184 181 176 174 171
218 225 215 238 256 275 295 295 307 314 306 297 318 309 278 252 313 202 177 162 198 197 203 99 120 154 159 157 169 177 184 188 182 178 173 158 176 189 144 211 228 212 208 207 208 176 160 168 178 180 179 173 173 173
199 202 212 225 251 270 301 314 315 326 309 307 314 308 293 247 294 225 162 161 182 180 204 120 276 152 169 165 156 174 181 186 196 182 164 167 156 185 242 234 221 207 196 202 199 195 203 185 168 173 177 177 177 179
207 217 222 225 243 275 289 311 324 315 316 321 319 323 347 239 276 232 221 229 172 196 185 159 147 193 167 152 145 156 175 131 200 201 212 162 180 220 219 216 210 209 200 203 190 194 191 184 176 177 180 182 181 179
212 210 217 230 247 280 304 310 319 319 319 314 320 192 201 166 197 165 176 180 195 214 215 131 135 146 161 153 144 136 174 167 194 231 153 179 251 231 229 226 234 223 209 196 179 180 182 184 184 184 186 186 183 179
208 212 217 222 246 268 295 308 313 322 346 275 256 250 233 163 153 167 166 164 223 254 190 157 158 136 169 135 153 200 167 176 167 233 164 242 262 228 226 227 224 218 212 212 218 216 211 206 189 186 184 184 179 181
206 212 213 220 239 267 283 302 305 299 246 266 275 193 187 186 183 183 186 171 210 234 179 147 154 132 145 158 118 166 136 79 232 137 102 264 241 228 218 224 225 217 209 205 206 206 198 196 195 188 181 179 178 178
204 213 211 217 241 255 269 283 275 304 283 266 239 224 182 191 196 193 194 197 206 181 178 164 128 135 131 152 100 122 130 201 133 113 226 235 259 233 225 223 222 217 209 202 199 197 195 190 190 188 181 179 174 178
203 207 211 220 228 254 267 271 277 283 315 254 211 222 211 187 197 192 209 207 171 171 166 168 127 144 137 123 141 128 211 96 140 224 232 224 235 233 233 220 216 209 204 201 195 191 190 187 185 183 184 178 176 178
202 205 212 222 229 242 258 265 272 258 226 261 247 224 209 214 204 195 222 232 190 171 154 154 96 119 116 107 102 105 107 238 205 219 214 220 220 227 229 218 209 205 200 196 193 190 187 185 182 180 181 180 177 177
199 206 217 223 235 247 260 256 279 249 232 233 247 253 256 189 218 198 200 208 199 172 163 171 140 153 195 130 134 208 163 210 227 211 226 220 223 222 231 221 210 203 199 194 191 188 186 184 182 180 177 180 178 180
198 216 218 224 232 246 259 265 273 214 221 222 239 246 244 289 262 226 198 190 187 166 182 152 198 199 106 141 228 191 198 194 222 233 236 222 220 222 223 212 205 198 195 193 189 186 186 182 182 179 177 178 180 180
209 215 217 223 235 258 263 251 226 237 211 212 219 249 250 243 274 227 216 185 161 191 206 214 143 164 201 194 233 204 226 229 236 243 279 232 228 233 230 212 203 197 193 190 187 185 185 184 182 183 180 177 178 178
206 207 214 223 236 241 237 231 210 255 214 210 216 228 260 249 229 242 252 218 199 197 227 195 196 210 235 214 189 183 209 225 238 238 240 243 229 225 214 205 201 195 191 188 186 187 188 187 185 185 182 180 181 180
203 206 213 226 232 229 248 250 239 264 231 226 222 224 228 257 266 244 241 224 210 199 212 236 215 221 235 292 305 314 298 252 221 210 219 217 219 214 207 202 197 193 188 187 187 189 186 185 189 189 186 186 184 184
198 207 221 230 241 228 263 282 262 255 274 237 224 212 215 223 201 202 214 230 189 204 233 244 251 249 258 271 285 308 316 306 271 240 236 222 213 210 199 196 195 191 189 186 188 189 191 191 190 189 189 190 190 190
203 208 216 219 210 228 233 229 238 264 287 310 294 202 185 228 243 190 206 188 212 229 238 255 263 268 271 275 286 289 295 307 297 271 257 249 219 213 205 200 193 192 193 192 193 191 191 194 192 190 191 191 189 189
193 198 199 196 204 235 248 213 209 230 232 245 282 217 254 226 219 237 233 206 222 235 248 256 265 269 272 276 274 275 285 286 306 300 267 255 241 223 211 206 202 199 195 195 196 195 195 194 193 192 191 190 188 188
187 178 186 212 201 254 228 213 208 205 222 223 219 254 238 231 198 204 228 229 245 249 245 241 246 256 266 270 266 257 262 277 278 285 288 261 244 229 220 215 208 206 203 197 196 197 197 194 193 194 193 190 189 190
163 199 197 224 209 215 218 272 189 195 213 176 207 256 251 198 222 236 223 249 232 229 228 230 239 246 254 266 272 268 260 263 263 268 277 273 250 234 224 217 211 209 204 201 198 199 197 196 195 196 195 193 192 193
195 203 188 193 232 156 201 195 204 214 200 198 223 236 189 187 202 234 207 244 242 253 250 241 243 254 262 265 260 263 260 264 255 255 261 263 265 245 231 218 211 208 210 209 206 202 199 198 197 197 197 196 196 197
205 229 201 216 221 184 200 256 213 194 202 222 220 200 188 218 232 242 225 246 258 263 265 265 268 263 269 273 268 265 261 260 261 260 262 265 268 266 247 236 232 225 214 210 209 210 205 201 199 199 198 197 198 200
198 198 181 204 200 224 219 216 179 210 230 232 220 251 214 200 206 227 265 277 293 266 282 342 35 317 292 272 269 268 268 266 260 255 255 254 254 249 252 244 239 236 230 220 214 210 209 207 203 201 200 199 198 200
194 205 212 216 210 214 213 213 220 225 237 236 246 257 265 278 286 288 287 287 286 281 282 273 280 288 287 291 307 297 271 268 257 242 239 239 234 229 236 237 232 229 225 223 219 214 210 209 208 206 204 202 201 200
213 211 204 217 211 223 226 220 227 240 246 241 249 260 270 275 279 281 273 274 280 284 285 293 296 279 272 284 289 278 287 282 270 255 243 244 247 247 242 241 236 227 221 217 214 207 207 207 205 204 203 202 201 201
216 220 214 228 235 240 242 247 247 247 250 253 254 254 260 268 277 274 272 273 273 278 284 279 276 272 267 259 265 271 279 280 285 287 264 252 260 261 262 253 242 229 218 214 211 208 203 201 202 203 204 204 204 203
210 208 217 224 238 241 242 252 246 244 250 246 249 251 253 257 259 270 275 269 260 260 259 258 258 259 270 272 277 276 273 279 285 288 301 271 256 255 254 256 241 229 219 213 212 210 206 202 199 201 205 204 204 204
216 221 221 227 240 216 233 230 241 252 252 248 249 246 239 236 240 254 266 264 254 252 254 257 260 267 273 276 281 278 271 266 269 272 275 272 256 254 248 242 239 230 224 215 211 210 207 204 203 202 203 202 202 203
Wind_Speed_850mb
30 25 27 25 25 30 32 31 28 36 41 40 34 10 37 45 41 36 32 26 28 10 26 31 21 22 26 22 10 30 15 8 5 4 7 8 7 10 4 9 12 14 13 7 6 2 10 30 17 13 7 22 33 32
33 32 29 27 25 27 26 28 29 36 39 41 44 20 27 45 43 38 34 33 28 14 15 27 25 21 29 27 23 63 6 16 28 8 2 7 5 4 7 6 4 4 11 8 16 10 3 67 7 19 25 34 36 30
41 33 30 28 25 23 23 25 23 30 42 42 46 37 17 48 50 44 41 30 28 15 10 20 19 24 27 29 27 20 15 21 18 12 17 5 6 8 9 11 7 7 11 5 4 6 21 52 27 25 25 24 32 28
38 35 33 27 25 23 23 24 23 24 36 45 39 47 19 28 55 51 44 35 37 11 10 10 21 25 27 31 30 19 11 32 25 19 7 6 5 15 6 1 5 6 22 10 11 12 8 31 59 36 34 33 37 31
38 35 32 27 23 24 25 24 24 28 30 40 40 46 30 15 45 48 45 41 43 15 10 13 23 17 24 28 27 19 18 28 20 13 6 6 11 11 3 4 7 27 16 13 12 21 9 10 59 54 46 46 38 34
38 31 24 23 24 25 22 23 24 23 26 33 33 44 43 24 22 38 22 51 48 35 6 5 12 14 21 25 24 24 26 21 13 9 8 10 12 12 7 8 17 53 40 27 6 22 17 6 48 58 48 47 40 32
33 28 21 18 19 15 18 25 25 23 28 32 33 33 48 29 22 29 18 16 58 46 10 12 5 12 25 26 23 21 23 11 10 9 9 11 11 15 5 9 13 32 43 41 28 33 19 38 42 61 49 48 41 34
33 28 30 21 17 14 16 21 21 24 31 38 26 35 42 44 33 37 24 12 60 49 15 8 3 10 29 13 12 17 15 15 10 7 10 10 14 8 8 33 35 30 46 48 43 43 16 39 46 64 57 57 51 41
36 34 27 20 15 14 18 19 25 26 30 24 19 22 19 22 9 14 41 15 63 25 18 15 15 10 33 13 12 15 15 2 9 7 10 19 5 12 24 54 56 60 63 61 57 47 28 51 64 70 68 61 52 47
37 28 26 17 14 14 19 21 23 27 23 15 12 5 11 17 15 8 15 21 29 22 14 8 20 7 27 13 8 12 7 6 5 6 21 6 9 49 37 42 48 61 64 49 69 50 53 62 74 78 73 60 50 46
37 32 24 18 14 12 17 24 23 25 8 6 3 5 8 20 19 15 12 11 10 8 24 20 18 16 26 9 8 12 6 1 3 6 9 7 9 22 77 87 67 55 67 70 64 47 47 48 79 80 74 64 55 49
38 33 25 19 16 13 11 17 16 16 9 10 17 13 13 14 10 7 9 9 9 11 24 29 26 22 24 17 12 12 7 4 11 18 4 9 10 48 46 78 100 86 75 77 75 61 56 59 70 73 71 70 60 50
40 32 26 21 16 13 12 14 19 17 26 25 12 8 13 12 8 10 12 7 6 12 23 23 12 24 17 12 16 7 9 12 26 3 9 11 24 29 58 62 77 93 80 83 82 67 57 61 66 73 74 69 62 56
40 34 28 21 19 18 13 21 23 24 11 9 11 10 10 11 12 11 10 6 16 28 47 41 21 15 14 9 10 12 3 6 1 5 17 7 34 41 45 51 60 78 92 91 87 80 71 71 73 76 71 70 67 61
39 35 28 24 21 21 22 21 22 15 6 11 13 11 16 20 21 21 27 12 14 35 75 25 10 10 5 9 3 11 5 14 16 15 9 30 55 41 51 56 65 72 93 96 94 90 79 77 81 83 76 70 63 58
40 33 33 29 29 24 24 23 24 21 12 15 18 10 13 13 10 26 32 36 30 57 46 23 8 9 8 11 10 22 16 17 10 9 36 42 30 53 61 59 60 71 89 99 98 94 85 85 89 87 81 72 66 59
38 42 34 30 24 22 22 28 21 17 22 17 14 44 31 20 22 30 37 33 45 45 9 10 10 16 8 7 9 13 12 9 21 23 35 46 58 60 65 59 63 72 87 99 101 95 88 88 90 89 87 79 69 60
43 37 29 26 22 24 32 39 20 20 25 21 11 51 51 40 27 15 27 36 41 29 26 10 21 7 13 16 10 8 25 27 36 29 19 31 48 50 43 51 62 72 87 98 101 97 94 97 98 94 86 82 74 66
39 31 25 21 20 18 8 12 24 12 28 32 62 70 26 43 51 52 24 21 45 53 14 9 5 9 11 7 10 22 36 59 58 41 41 30 33 39 41 52 63 75 87 100 106 102 99 98 99 97 91 87 84 77
31 30 22 17 20 9 10 14 12 14 9 17 43 42 52 46 45 53 43 32 49 16 11 7 10 12 6 14 17 19 26 42 61 49 45 45 40 42 52 60 71 78 90 99 101 98 99 100 98 96 92 90 87 81
32 30 26 23 22 22 12 12 11 11 11 14 28 42 19 39 30 44 51 48 26 10 5 28 37 54 60 60 53 57 56 44 44 64 64 59 53 53 55 62 71 86 101 110 112 105 103 107 105 100 94 89 81 72
34 24 21 18 16 13 20 22 16 9 10 17 10 12 11 9 18 23 34 24 19 30 30 42 40 47 54 58 52 43 43 42 46 50 68 58 62 64 66 77 87 95 105 114 117 113 111 110 104 101 96 89 81 74
25 23 15 16 15 12 12 22 13 11 4 5 6 4 4 6 19 30 11 22 29 48 68 75 77 68 76 77 69 73 73 50 42 43 54 56 58 66 69 78 85 97 108 114 114 112 114 109 106 103 98 90 85 79
27 18 14 14 22 10 9 12 15 13 9 6 6 5 6 9 12 13 8 22 60 73 71 68 64 65 66 69 75 81 87 76 57 49 42 51 58 60 68 73 86 95 98 108 116 115 112 109 108 106 101 96 93 90
12 17 13 12 16 11 8 6 7 6 7 7 8 8 7 11 7 7 6 10 55 68 74 66 64 65 70 77 72 73 80 91 62 56 50 43 51 55 63 68 80 93 98 105 116 117 110 107 110 111 107 103 101 98
13 24 26 18 8 11 11 6 10 13 9 10 15 10 11 7 9 10 7 24 46 65 71 70 66 70 70 77 80 79 76 81 70 68 69 57 52 63 72 80 86 93 104 107 110 118 113 114 116 116 112 107 103 100
11 13 18 24 13 8 5 6 6 4 8 10 7 11 10 12 12 7 20 30 39 41 34 31 40 61 64 66 69 79 75 84 80 72 69 68 63 56 69 77 89 93 98 111 114 115 114 117 116 118 116 111 107 104
16 30 16 33 22 32 13 9 11 10 8 11 4 7 11 16 11 19 40 40 33 30 22 7 9 17 36 50 51 49 58 67 70 65 59 59 59 53 55 66 71 77 80 98 115 110 113 111 113 118 118 115 112 106
21 34 42 19 23 19 20 16 15 28 37 35 12 13 8 51 60 68 74 72 63 53 46 38 44 50 58 59 46 46 55 61 59 61 72 78 77 74 62 62 71 77 77 87 110 114 109 111 108 109 111 111 107 103
27 58 23 20 19 20 35 42 44 51 59 71 70 63 62 67 80 76 76 81 71 65 63 61 55 38 35 26 42 56 53 49 55 65 70 82 90 77 67 65 67 76 80 86 103 110 102 100 101 103 106 106 105 106
40 47 19 35 27 64 78 72 70 74 72 67 70 60 62 80 89 88 81 85 89 87 73 66 56 45 41 46 42 50 60 58 52 55 66 68 61 65 67 77 75 77 85 92 100 111 114 108 108 109 112 114 112 110
45 36 20 18 24 71 51 37 51 57 64 61 64 63 61 50 47 72 85 69 61 59 56 50 47 51 54 53 56 61 58 54 55 53 46 48 71 75 62 60 79 88 92 95 98 106 115 117 116 117 118 116 112 112
29 42 41 29 22 15 35 36 20 28 48 48 53 63 62 64 34 69 83 63 58 61 64 68 71 79 79 67 62 61 52 50 53 56 53 47 53 64 71 62 65 84 96 99 101 106 116 122 121 122 120 116 114 113
Wind_Direction_850mb
262 264 280 276 288 301 293 304 313 311 303 258 256 38 188 214 211 217 221 215 208 221 180 189 180 165 163 168 143 151 110 210 82 124 147 193 165 211 155 169 179 171 148 186 94 54 302 161 127 178 163 149 171 177
260 260 265 272 281 305 314 315 318 312 308 297 247 315 169 199 206 212 220 211 209 214 177 194 194 189 190 179 148 166 158 162 173 102 182 115 148 152 156 234 33 231 187 181 188 216 163 178 158 179 164 166 175 174
245 254 260 272 272 285 299 304 309 320 315 310 268 251 19 182 202 205 213 211 196 197 148 174 184 188 185 185 175 164 199 172 184 161 150 147 162 137 164 234 160 240 180 196 23 195 210 199 197 185 177 176 167 167
243 246 256 261 267 275 290 299 303 299 310 313 287 255 325 182 196 201 209 210 201 179 148 185 190 185 189 187 190 191 191 175 159 160 139 141 155 192 194 179 193 166 151 176 265 248 214 224 210 193 177 173 166 166
233 242 254 258 252 264 279 287 301 306 309 319 304 270 248 28 182 200 207 208 205 213 161 142 173 185 192 192 192 190 174 173 160 157 133 195 146 140 94 88 240 192 177 173 221 203 171 196 199 189 183 177 175 171
232 245 237 239 251 276 289 306 296 301 301 315 311 288 241 341 155 178 216 217 207 205 204 122 172 179 182 183 186 182 176 180 183 178 158 169 176 174 142 203 244 207 206 205 206 185 187 189 178 184 181 176 174 171
218 225 215 238 256 275 295 295 307 314 306 297 318 309 278 252 313 202 177 162 198 197 203 99 120 154 159 157 169 177 184 188 182 178 173 158 176 189 144 211 228 212 208 207 208 176 160 168 178 180 179 173 173 173
199 202 212 225 251 270 301 314 315 326 309 307 314 308 293 247 294 225 162 161 182 180 204 120 276 152 169 165 156 174 181 186 196 182 164 167 156 185 242 234 221 207 196 202 199 195 203 185 168 173 177 177 177 179
207 217 222 225 243 275 289 311 324 315 316 321 319 323 347 239 276 232 221 229 172 196 185 159 147 193 167 152 145 156 175 131 200 201 212 162 180 220 219 216 210 209 200 203 190 194 191 184 176 177 180 182 181 179
212 210 217 230 247 280 304 310 319 319 319 314 320 192 201 166 197 165 176 180 195 214 215 131 135 146 161 153 144 136 174 167 194 231 153 179 251 231 229 226 234 223 209 196 179 180 182 184 184 184 186 186 183 179
208 212 217 222 246 268 295 308 313 322 346 275 256 250 233 163 153 167 166 164 223 254 190 157 158 136 169 135 153 200 167 176 167 233 164 242 262 228 226 227 224 218 212 212 218 216 211 206 189 186 184 184 179 181
206 212 213 220 239 267 283 302 305 299 246 266 275 193 187 186 183 183 186 171 210 234 179 147 154 132 145 158 118 166 136 79 232 137 102 264 241 228 218 224 225 217 209 205 206 206 198 196 195 188 181 179 178 178
204 213 211 217 241 255 269 283 275 304 283 266 239 224 182 191 196 193 194 197 206 181 178 164 128 135 131 152 100 122 130 201 133 113 226 235 259 233 225 223 222 217 209 202 199 197 195 190 190 188 181 179 174 178
203 207 211 220 228 254 267 271 277 283 315 254 211 222 211 187 197 192 209 207 171 171 166 168 127 144 137 123 141 128 211 96 140 224 232 224 235 233 233 220 216 209 204 201 195 191 190 187 185 183 184 178 176 178
202 205 212 222 229 242 258 265 272 258 226 261 247 224 209 214 204 195 222 232 190 171 154 154 96 119 116 107 102 105 107 238 205 219 214 220 220 227 229 218 209 205 200 196 193 190 187 185 182 180 181 180 177 177
199 206 217 223 235 247 260 256 279 249 232 233 247 253 256 189 218 198 200 208 199 172 163 171 140 153 195 130 134 208 163 210 227 211 226 220 223 222 231 221 210 203 199 194 191 188 186 184 182 180 177 180 178 180
198 216 218 224 232 246 259 265 273 214 221 222 239 246 244 289 262 226 198 190 187 166 182 152 198 199 106 141 228 191 198 194 222 233 236 222 220 222 223 212 205 198 195 193 189 186 186 182 182 179 177 178 180 180
209 215 217 223 235 258 263 251 226 237 211 212 219 249 250 243 274 227 216 185 161 191 206 214 143 164 201 194 233 204 226 229 236 243 279 232 228 233 230 212 203 197 193 190 187 185 185 184 182 183 180 177 178 178
206 207 214 223 236 241 237 231 210 255 214 210 216 228 260 249 229 242 252 218 199 197 227 195 196 210 235 214 189 183 209 225 238 238 240 243 229 225 214 205 201 195 191 188 186 187 188 187 185 185 182 180 181 180
203 206 213 226 232 229 248 250 239 264 231 226 222 224 228 257 266 244 241 224 210 199 212 236 215 221 235 292 305 314 298 252 221 210 219 217 219 214 207 202 197 193 188 187 187 189 186 185 189 189 186 186 184 184
198 207 221 230 241 228 263 282 262 255 274 237 224 212 215 223 201 202 214 230 189 204 233 244 251 249 258 271 285 308 316 306 271 240 236 222 213 210 199 196 195 191 189 186 188 189 191 191 190 189 189 190 190 190
203 208 216 219 210 228 233 229 238 264 287 310 294 202 185 228 243 190 206 188 212 229 238 255 263 268 271 275 286 289 295 307 297 271 257 249 219 213 205 200 193 192 193 192 193 191 191 194 192 190 191 191 189 189
193 198 199 196 204 235 248 213 209 230 232 245 282 217 254 226 219 237 233 206 222 235 248 256 265 269 272 276 274 275 285 286 306 300 267 255 241 223 211 206 202 199 195 195 196 195 195 194 193 192 191 190 188 188
187 178 186 212 201 254 228 213 208 205 222 223 219 254 238 231 198 204 228 229 245 249 245 241 246 256 266 270 266 257 262 277 278 285 288 261 244 229 220 215 208 206 203 197 196 197 197 194 193 194 193 190 189 190
163 199 197 224 209 215 218 272 189 195 213 176 207 256 251 198 222 236 223 249 232 229 228 230 239 246 254 266 272 268 260 263 263 268 277 273 250 234 224 217 211 209 204 201 198 199 197 196 195 196 195 193 192 193
195 203 188 193 232 156 201 195 204 214 200 198 223 236 189 187 202 234 207 244 242 253 250 241 243 254 262 265 260 263 260 264 255 255 261 263 265 245 231 218 211 208 210 209 206 202 199 198 197 197 197 196 196 197
205 229 201 216 221 184 200 256 213 194 202 222 220 200 188 218 232 242 225 246 258 263 265 265 268 263 269 273 268 265 261 260 261 260 262 265 268 266 247 236 232 225 214 210 209 210 205 201 199 199 198 197 198 200
198 198 181 204 200 224 219 216 179 210 230 232 220 251 214 200 206 227 265 277 293 266 282 342 35 317 292 272 269 268 268 266 260 255 255 254 254 249 252 244 239 236 230 220 214 210 209 207 203 201 200 199 198 200
194 205 212 216 210 214 213 213 220 225 237 236 246 257 265 278 286 288 287 287 286 281 282 273 280 288 287 291 307 297 271 268 257 242 239 239 234 229 236 237 232 229 225 223 219 214 210 209 208 206 204 202 201 200
213 211 204 217 211 223 226 220 227 240 246 241 249 260 270 275 279 281 273 274 280 284 285 293 296 279 272 284 289 278 287 282 270 255 243 244 247 247 242 241 236 227 221 217 214 207 207 207 205 204 203 202 201 201
216 220 214 228 235 240 242 247 247 247 250 253 254 254 260 268 277 274 272 273 273 278 284 279 276 272 267 259 265 271 279 280 285 287 264 252 260 261 262 253 242 229 218 214 211 208 203 201 202 203 204 204 204 203
210 208 217 224 238 241 242 252 246 244 250 246 249 251 253 257 259 270 275 269 260 260 259 258 258 259 270 272 277 276 273 279 285 288 301 271 256 255 254 256 241 229 219 213 212 210 206 202 199 201 205 204 204 204
216 221 221 227 240 216 233 230 241 252 252 248 249 246 239 236 240 254 266 264 254 252 254 257 260 267 273 276 281 278 271 266 269 272 275 272 256 254 248 242 239 230 224 215 211 210 207 204 203 202 203 202 202 203